Time,TemperatureF,DewpointF,PressureIn,WindDirection,WindDirectionDegrees,WindSpeedMPH,WindSpeedGustMPH,Humidity,HourlyPrecipIn,Conditions,Clouds,dailyrainin,SolarRadiationWatts/m^2,SoftwareType,DateUTC
2014-04-18 00:07:00,74.3,71.0,30.11,NNE,23,0.0,-999.0,89,-99.99,,,0.00,0,weatherlink.com 1.10,2014-04-18 04:07:00,
2014-04-18 00:22:00,74.2,71.0,30.11,NE,43,3.0,-999.0,90,-99.99,,,0.00,0,weatherlink.com 1.10,2014-04-18 04:22:00,
2014-04-18 00:37:00,74.1,71.0,30.10,East,87,0.0,-999.0,90,-99.99,,,0.00,0,weatherlink.com 1.10,2014-04-18 04:37:00,
2014-04-18 00:52:00,73.9,71.0,30.09,East,88,3.0,-999.0,90,-99.99,,,0.00,0,weatherlink.com 1.10,2014-04-18 04:52:00,
2014-04-18 01:07:00,74.0,71.0,30.09,NE,40,5.0,-999.0,91,-99.99,,,0.00,0,weatherlink.com 1.10,2014-04-18 05:07:00,
2014-04-18 01:22:00,73.9,71.0,30.09,ENE,72,7.0,-999.0,91,-99.99,,,0.00,0,weatherlink.com 1.10,2014-04-18 05:22:00,
2014-04-18 01:37:00,73.8,71.0,30.08,East,82,3.0,-999.0,91,-99.99,,,0.00,0,weatherlink.com 1.10,2014-04-18 05:37:00,
2014-04-18 01:52:00,73.8,71.0,30.07,ENE,69,3.0,-999.0,92,-99.99,,,0.00,0,weatherlink.com 1.10,2014-04-18 05:52:00,
2014-04-18 02:07:00,73.8,71.0,30.07,East,88,0.0,-999.0,92,-99.99,,,0.00,0,weatherlink.com 1.10,2014-04-18 06:07:00,
2014-04-18 02:22:00,73.7,71.0,30.06,ENE,73,4.0,-999.0,92,-99.99,,,0.00,0,weatherlink.com 1.10,2014-04-18 06:22:00,
2014-04-18 02:37:00,73.9,72.0,30.07,NNE,32,1.0,-999.0,92,-99.99,,,0.00,0,weatherlink.com 1.10,2014-04-18 06:37:00,
2014-04-18 02:52:00,73.9,72.0,30.06,ENE,78,4.0,-999.0,92,-99.99,,,0.00,0,weatherlink.com 1.10,2014-04-18 06:52:00,
2014-04-18 03:07:00,73.8,71.0,30.05,NNE,16,1.0,-999.0,92,-99.99,,,0.00,0,weatherlink.com 1.10,2014-04-18 07:07:00,
2014-04-18 03:23:00,73.7,72.0,30.05,NE,46,3.0,-999.0,93,-99.99,,,0.00,0,weatherlink.com 1.10,2014-04-18 07:23:00,
2014-04-18 03:37:00,73.6,72.0,30.05,ENE,67,1.0,-999.0,93,-99.99,,,0.00,0,weatherlink.com 1.10,2014-04-18 07:37:00,
2014-04-18 03:52:00,73.5,71.0,30.04,East,83,0.0,-999.0,93,-99.99,,,0.00,0,weatherlink.com 1.10,2014-04-18 07:52:00,
2014-04-18 04:07:00,73.5,71.0,30.02,ENE,64,4.0,-999.0,93,-99.99,,,0.00,0,weatherlink.com 1.10,2014-04-18 08:07:00,
2014-04-18 04:22:00,73.4,71.0,30.03,East,81,2.0,-999.0,93,-99.99,,,0.00,0,weatherlink.com 1.10,2014-04-18 08:22:00,
2014-04-18 04:37:00,73.7,72.0,30.02,ENE,66,0.0,-999.0,93,-99.99,,,0.01,0,weatherlink.com 1.10,2014-04-18 08:37:00,
2014-04-18 04:52:00,73.2,71.0,30.04,East,96,0.0,-999.0,94,-99.99,,,0.07,0,weatherlink.com 1.10,2014-04-18 08:52:00,
2014-04-18 05:08:00,72.2,71.0,30.03,East,84,0.0,-999.0,95,-99.99,,,0.11,0,weatherlink.com 1.10,2014-04-18 09:08:00,
2014-04-18 05:23:00,71.7,71.0,30.02,ENE,65,0.0,-999.0,96,-99.99,,,0.14,0,weatherlink.com 1.10,2014-04-18 09:23:00,
2014-04-18 05:38:00,71.4,70.0,30.01,ENE,65,0.0,-999.0,96,-99.99,,,0.14,0,weatherlink.com 1.10,2014-04-18 09:38:00,
2014-04-18 05:53:00,71.2,70.0,30.01,ENE,65,0.0,-999.0,97,-99.99,,,0.14,0,weatherlink.com 1.10,2014-04-18 09:53:00,
2014-04-18 06:08:00,71.1,70.0,30.01,ENE,65,0.0,-999.0,97,-99.99,,,0.14,0,weatherlink.com 1.10,2014-04-18 10:08:00,
2014-04-18 06:23:00,71.1,70.0,30.01,ENE,74,1.0,-999.0,97,-99.99,,,0.14,0,weatherlink.com 1.10,2014-04-18 10:23:00,
2014-04-18 06:38:00,71.1,70.0,30.02,ENE,74,0.0,-999.0,97,-99.99,,,0.14,0,weatherlink.com 1.10,2014-04-18 10:38:00,
2014-04-18 06:53:00,70.9,70.0,30.02,ENE,74,0.0,-999.0,98,-99.99,,,0.14,0,weatherlink.com 1.10,2014-04-18 10:53:00,
2014-04-18 07:08:00,70.7,70.0,30.02,ENE,74,0.0,-999.0,98,-99.99,,,0.14,14,weatherlink.com 1.10,2014-04-18 11:08:00,